SCP
0 0 0 0 0 0 0 0 0 0 0 0 0 0 0 0 0 0 0 0 0 0 0 0 0 0 0 0 0 0 0 0 0 0 0 0 0 0 0 0 0 0 0 0
0 0 0 0 0 0 0 0 0 0 0 0 0 0 0 0 0 0 0 0 0 0 0 0 0 0 0 0 0 0 0 0 0 0 0 0 0 0 0 0 0 0 0 0
0 0 0 0 0 0 0 0 0 0 0 0 0 0 0 0 0 0 0 0 0 0 0 0 0 0 0 0 0 0 0 0 0 0 0 0 0 0 0 0 0 0 0 0
0 0 0 0 0 0 0 0 0 0 0 0 0 0 0 0 0 0 0 0 0 0 0 0 0 0 0 0 0 0 0 0 0 0 0 0 0 0 0 0 0 0 0 0
0 0 0 0 0 0 0 0 0 0 0 0 0 0 0 0 0 0 0 0 0 0 0 0 0 0 0 0 0 0 0 0 0 0 0 0 0 0 0 0 0 0 0 0
0 0 0 0 0 0 0 0 0 0 0 0 0 0 0 0 0 0 0 0 0 0 0 0 0 0 0 0 0 0 0 0 0 0 0 0 0 0 0 0 0 0 0 0
0 0 0 0 0 0 0 0 0 0 0 0 0 0 0 0 0 0 0 0 0 0 0 0 0 0 0 0 0 0 0 0 0 0 0 0 0 0 0 0 0 0 0 0
0 0 0 0 0 0 0 0 0 0 0 0 0 0 0 0 0 0 0 0 0 0 0 0 0 0 0 0 0 0 0 0 0 0 0 0 0 0 0 0 0 0 0 0
0 0 0 0 0 0 0 0 0 0 0 0 0 0 0 0 0 0 0 0 0 0 0 0 0 0 0 0 0 0 0 0 0 0 0 0 0 0 0 0 0 0 0 0
0 0 0 0 0 0 0 0 0 0 0 0 0 0 0 0 0 0 0 0 0 0 0 0 0 0 0 0 0 0 0 0 0 0 0 0 0 0 0 0 0 0 0 0
0 0 0 0 0 0 0 0 0 0 0 0 0 0 0 0 0 0 0 0 0 0 0 0 0 0 0 0 0 0 0 0 0 0 0 0 0 0 0 0 0 0 0 0
0 0 0 0 0 0 0 0 0 0 0 0 0 0 0 0 0 0 0 0 0 0 0 0 0 0 0 0 0 0 0 0 0 0 0 0 0 0 0 0 0 0 0 0
0 0 0 0 0 0 0 0 0 0 0 0 0 0 0 0 0 0 0 0 0 0 0 0 0 0 0 0 0 0 0 0 0 0 0 0 0 0 0 0 0 0 0 0
0 0 0 0 0 0 0 0 0 0 0 0 0 0 0 0 0 0 0 0 0 0 0 0 0 0 0 0 0 0 0 0 0 0 0 0 0 0 0 0 0 0 0 0
0 0 0 0 0 0 0 0 0 0 0 0 0 0 0 0 0 0 0 0 0 0 0 0 0 0 0 0 0 0 0 0 0 0 0 0 0 0 0 0 0 0 0 0
0 0 0 0 0 0 0 0 0 0 0 0 0 0 0 0 0 0 0 0 0 0 0 0 0 0 0 0 0 0 0 0 0 0 0 0 0 0 0 0 0 0 0 0
0 0 0 0 0 0 0 0 0 0 0 0 0 0 0 0 0 0 0 0 0 0 0 -0 -0 -0 -0 -0 -0 0 0 0 0 0 0 0 0 0 0 0 0 0 0 0
0 0 0 0 0 0 -0 0 0 0 0 0 0 0 0 0 0 0 0 0 0 0 0 0 0 0 0 0 0 0 0 0 0 0 0 0 0 0 0 0 0 0 0 0
0 0 0 0 -0 -0 0 0 0 0 0 0 0 0 0 0 0 0 0 0 0 0 0 0 0 0 0 0 0 0 0 0 0 0 0 0 0 0 0 0 0 0 0 0
0 -0 -0 -0 -0 -0 -0 0 0 -0 0 0 0 0 0 0 0 0 0 0 0 0 0 0 0 0 0 0 0 0 0 0 0 0 0 0 0 0 0 0 0 0 0 0
0 -0 -0 -0 -0 -0 -0 -0 -0 -0 -0 0 0 0 0 0 0 0 0 0 0 0 0 0 0 0 0 0 0 0 0 0 0 0 0 0 0 0 0 0 0 0 0 0
-0 -0 -0 -0 -0 -0 -0 -0 -0 -0 0 0 0 0 0 0 0 0 0 0 0 0 0 0 0 0 0 0 0 0 0 0 0 0 0 0 0 0 0 0 0 0 0 0
-0 -0 -0 -0 -0 -0 0 0 0 0 0 0 0 0 0 0 0 0 0 0 0 0 0 0 0 0 0 0 0 0 0 0 0 0 0 0 0 0 0 0 0 0 0 0
-0 0 0 0 0 0 -0 0 0 0 0 0 0 0 0 0 0 0 0 0 0 0 0 0 0 0 0 0 0 0 0 0 0 0 0 0 0 0 0 0 0 0 0 0
-0 0 0 0 0 0 0 0 0 0 0 0 0 0 0 0 0 0 0 0 0 0 0 0 0 0 0 0 0 0 0 0 0 0 0 0 0 0 0 0 0 0 0 0
0 0 0 0 0 0 0 0 0 0 0 0 0 0 0 0 0 0 0 0 0 0 0 0 0 0 0 0 0 0 0 0 0 0 0 0 0 0 0 0 0 0 0 0
0 0 0 0 0 0 0 0 0 0 0 0 0 0 0 0 0 0 0 0 0 0 0 0 0 0 0 0 0 0 0 0 0 0 0 0 0 0 0 0 0 0 0 0
Wind_Speed_500mb
2 3 4 9 18 19 35 30 21 11 18 17 15 15 21 16 22 28 30 13 16 17 21 21 22 23 26 30 37 43 47 46 41 36 33 32 31 30 28 26 25 23 21 18
4 3 7 9 19 25 29 13 18 5 10 10 36 19 14 26 50 62 44 25 21 22 24 26 24 21 22 25 29 38 45 46 43 38 34 32 31 29 29 28 26 24 23 20
7 6 6 18 17 21 14 12 22 26 30 17 21 38 56 61 54 51 36 28 23 18 12 11 20 26 24 29 35 41 45 47 44 39 35 33 32 30 28 27 26 25 21 15
5 5 9 5 5 16 28 18 31 11 13 27 45 59 50 51 45 38 31 29 23 17 16 21 25 29 33 34 33 34 39 42 42 39 36 34 32 30 28 26 24 22 21 18
9 8 12 8 11 17 18 32 29 27 28 21 31 19 39 50 40 38 32 28 24 19 19 25 34 43 46 46 45 42 43 44 43 39 37 34 32 29 28 27 26 25 26 25
6 10 17 11 8 29 15 22 20 41 32 31 23 7 27 53 36 37 34 30 25 23 27 38 44 47 48 48 47 46 45 42 39 37 34 33 31 30 29 27 28 29 26 23
6 7 16 17 18 38 12 11 23 43 49 33 15 39 24 18 28 33 33 31 27 29 41 46 46 46 48 48 47 40 39 39 39 36 35 33 31 30 29 31 31 28 24 24
6 2 24 30 17 25 13 21 13 21 30 44 52 46 37 28 26 29 32 32 35 47 47 46 44 48 48 47 42 41 40 40 40 40 36 33 33 34 34 32 31 29 25 23
20 17 1 46 15 38 16 22 24 35 34 36 34 32 29 34 34 36 34 46 54 52 49 43 45 49 49 46 45 44 43 42 41 38 36 36 36 38 38 38 34 29 25 24
7 6 12 27 53 35 53 48 47 40 29 30 33 34 33 33 34 44 48 49 48 50 48 46 50 51 50 49 47 46 45 43 42 42 41 40 40 40 38 36 32 27 25 22
13 3 9 17 48 57 59 64 59 47 43 46 40 37 34 43 57 59 59 57 57 58 56 53 54 55 53 51 48 49 47 46 46 45 44 44 42 39 36 30 26 23 21 19
12 22 20 29 44 48 58 68 64 55 53 49 46 54 59 69 73 67 64 63 62 61 60 57 58 59 58 54 52 52 52 51 50 50 49 46 45 44 38 34 31 25 22 20
22 9 19 25 26 30 43 53 56 50 55 59 65 64 66 71 65 58 59 58 59 62 60 57 59 60 59 57 54 55 53 52 53 52 51 51 50 43 41 38 32 28 23 23
39 42 44 62 57 55 49 46 45 53 56 64 71 68 65 67 68 63 64 61 61 61 61 60 62 63 59 56 54 52 53 50 51 52 51 49 43 39 35 30 25 24 23 23
73 72 78 81 82 80 76 72 72 74 75 72 67 65 63 66 64 60 61 63 62 61 60 59 60 58 55 54 54 54 51 51 51 50 48 42 40 40 36 33 29 26 24 21
63 58 57 57 77 83 77 75 74 78 74 71 65 60 57 57 58 58 60 59 58 58 56 52 49 48 50 52 51 51 52 51 52 52 49 49 47 44 39 35 32 30 27 23
59 64 55 69 72 74 69 64 65 66 60 58 57 53 53 53 55 57 54 52 50 50 41 36 38 41 47 50 52 56 57 57 55 52 51 47 43 40 36 35 34 32 27 28
48 50 49 56 64 67 71 69 68 67 65 60 55 54 53 52 53 48 46 44 44 39 36 35 36 42 47 52 55 57 58 56 55 52 49 48 44 41 40 38 34 31 29 28
38 42 44 47 49 56 61 61 57 56 53 49 49 50 46 44 41 42 42 42 39 36 33 37 43 49 54 56 58 58 57 56 54 51 48 45 45 45 41 36 33 32 32 31
29 34 40 45 49 54 57 55 57 53 46 42 40 42 43 43 41 42 41 38 31 28 35 44 51 54 55 57 59 59 58 57 53 50 50 50 48 42 37 37 37 34 34 34
32 33 34 39 42 43 44 40 36 39 41 39 37 35 35 34 36 39 42 42 36 40 46 50 52 57 60 60 60 60 59 56 54 53 52 47 43 41 40 38 36 35 36 38
41 39 36 37 38 37 34 34 31 27 32 32 31 33 35 36 40 44 44 42 41 50 53 54 56 58 59 60 61 60 58 56 54 51 49 46 45 43 39 38 38 37 40 41
47 46 43 38 36 36 34 32 33 35 33 33 35 32 34 35 40 47 49 47 51 55 56 54 56 60 61 61 61 61 59 57 54 51 48 46 43 41 40 40 40 42 43 43
51 48 45 43 42 36 31 28 35 35 35 35 34 34 36 39 44 47 45 46 49 55 57 56 59 63 65 65 64 62 60 57 54 50 48 46 45 44 43 43 44 43 45 45
55 50 46 45 43 37 34 33 36 36 37 39 42 42 43 44 45 40 46 45 48 55 57 60 62 65 67 67 66 64 61 57 53 51 50 48 46 46 45 45 45 46 47 47
52 51 48 46 49 45 37 38 40 33 36 41 42 44 47 50 50 50 49 53 54 55 60 63 67 70 70 71 70 66 62 59 57 55 52 50 49 49 48 48 49 48 47 48
63 59 58 57 51 51 48 42 43 40 36 39 40 39 45 51 54 55 56 58 59 61 60 63 66 69 70 71 71 68 65 62 59 57 55 53 52 51 50 50 50 49 50 50
Wind_Direction_500mb
181 346 175 207 193 192 218 227 218 198 197 207 203 210 202 211 291 298 310 281 278 274 285 282 287 281 269 267 268 269 267 267 270 270 271 270 269 268 264 259 257 257 259 262
338 37 2 254 218 217 225 221 228 281 268 236 215 172 183 267 272 278 269 267 264 272 280 285 287 288 292 289 282 274 268 264 264 264 265 267 267 264 260 257 254 253 256 260
217 350 53 283 195 198 199 186 202 226 231 213 232 232 227 240 244 252 244 259 256 258 264 271 296 294 293 290 280 269 260 257 258 259 259 258 255 252 249 246 243 243 245 251
153 49 232 255 313 206 202 203 211 218 208 202 223 239 250 254 240 239 247 249 238 248 272 284 285 293 292 296 301 284 265 256 252 250 250 250 250 249 249 248 246 242 233 237
152 191 302 271 194 169 175 240 217 213 228 220 227 234 248 238 249 246 243 224 233 251 272 296 300 294 295 293 291 281 263 252 247 244 244 245 247 248 245 240 234 228 241 243
117 153 214 246 207 168 104 260 224 206 225 217 160 220 253 261 246 240 220 226 240 259 283 298 297 292 289 287 282 275 262 250 244 242 244 246 243 238 233 227 231 238 234 228
173 216 282 235 174 146 150 242 214 204 223 191 184 225 247 253 235 213 224 232 249 277 292 289 281 282 282 281 280 275 258 245 241 241 241 240 236 231 226 227 228 222 215 221
109 135 262 172 140 173 198 168 155 186 225 227 238 242 246 239 213 230 240 245 277 292 284 270 273 277 276 277 277 266 250 240 235 235 234 231 227 226 223 219 213 210 214 222
190 210 155 182 199 194 193 195 215 232 230 240 240 247 247 229 243 253 248 278 283 278 268 266 275 274 271 273 267 254 242 236 234 233 229 226 224 218 213 208 209 214 222 224
103 240 211 207 212 222 225 241 251 251 233 232 236 252 255 253 257 275 278 281 278 272 257 269 271 266 265 263 256 244 235 230 229 228 226 218 212 209 207 207 210 218 219 224
266 186 350 256 227 230 237 243 251 260 267 262 260 264 271 280 284 286 282 284 282 271 259 271 267 263 261 258 249 239 231 226 225 225 218 210 204 203 204 208 215 216 218 223
228 180 206 255 261 257 251 256 261 268 271 272 276 281 284 281 279 281 279 277 272 258 262 267 262 260 255 250 242 234 228 225 222 216 207 202 199 197 199 205 214 216 217 225
232 252 290 282 283 274 280 279 279 272 267 267 272 274 275 276 276 281 277 274 268 265 271 265 262 259 253 244 236 230 227 224 218 209 203 198 199 203 207 204 210 212 218 229
255 274 276 274 274 281 285 286 281 276 268 268 272 273 274 271 273 275 276 274 267 265 264 262 260 254 245 236 230 226 223 220 213 205 200 199 202 206 208 209 210 211 219 223
264 262 265 275 279 280 283 279 274 272 272 273 275 273 271 268 270 275 272 269 267 264 261 260 255 246 235 227 223 219 214 206 202 199 197 198 202 205 207 209 215 221 226 234
278 275 273 273 277 278 278 278 275 277 281 283 282 278 279 274 269 268 266 264 264 270 273 262 247 237 225 220 215 208 201 197 195 195 196 198 203 208 211 214 220 227 232 238
272 274 270 267 270 277 279 282 281 283 288 286 287 287 278 269 265 262 262 266 270 272 261 246 237 225 216 211 205 196 193 192 194 197 199 204 210 213 215 219 224 230 235 244
280 284 280 276 278 280 281 283 284 283 283 287 284 279 273 266 264 263 264 268 268 258 243 231 219 211 206 198 193 192 193 195 197 198 202 206 209 213 219 223 226 233 241 252
291 290 289 289 290 289 289 288 286 284 283 281 278 278 277 270 261 257 256 258 253 242 227 210 199 191 188 188 190 191 194 196 199 203 206 210 215 219 222 227 233 238 246 257
314 305 297 294 292 290 289 289 287 283 278 274 273 270 269 263 254 250 252 252 248 233 207 197 189 185 186 190 193 195 197 200 203 206 212 216 219 223 227 232 236 243 253 260
332 326 324 320 313 307 304 301 300 290 272 263 261 263 262 255 247 243 236 232 217 201 199 198 195 192 192 195 196 199 202 205 208 212 217 220 224 229 234 239 245 252 259 264
327 325 326 326 323 321 310 307 306 300 290 277 265 256 250 242 234 229 227 227 211 204 202 200 200 201 201 199 201 204 207 210 214 217 221 224 229 234 240 247 253 259 262 265
318 313 317 320 324 324 319 308 297 293 284 275 266 256 249 243 238 231 225 217 207 208 209 207 205 205 205 207 209 210 212 215 218 223 227 232 236 241 246 251 256 259 263 268
323 316 302 306 315 319 323 311 296 289 284 275 260 245 238 237 233 230 230 229 220 216 215 214 211 211 211 212 212 215 217 220 224 228 232 236 240 244 248 253 257 261 266 269
304 305 305 290 292 304 308 311 304 298 290 279 268 252 240 233 232 229 233 229 224 223 222 220 217 217 218 218 218 220 223 226 229 233 236 240 244 248 252 255 259 262 265 268
293 289 289 288 283 282 288 294 297 294 291 286 275 261 248 238 230 226 226 226 226 227 225 224 222 222 222 222 223 225 228 230 233 236 239 243 247 250 254 258 261 264 267 269
291 286 279 275 277 275 276 282 289 297 293 287 281 264 252 243 239 234 230 229 228 228 227 227 226 228 228 228 229 229 231 233 236 239 242 246 249 253 257 261 264 266 268 269
Wind_Speed_850mb
2 3 4 9 18 19 35 30 21 11 18 17 15 15 21 16 22 28 30 13 16 17 21 21 22 23 26 30 37 43 47 46 41 36 33 32 31 30 28 26 25 23 21 18
4 3 7 9 19 25 29 13 18 5 10 10 36 19 14 26 50 62 44 25 21 22 24 26 24 21 22 25 29 38 45 46 43 38 34 32 31 29 29 28 26 24 23 20
7 6 6 18 17 21 14 12 22 26 30 17 21 38 56 61 54 51 36 28 23 18 12 11 20 26 24 29 35 41 45 47 44 39 35 33 32 30 28 27 26 25 21 15
5 5 9 5 5 16 28 18 31 11 13 27 45 59 50 51 45 38 31 29 23 17 16 21 25 29 33 34 33 34 39 42 42 39 36 34 32 30 28 26 24 22 21 18
9 8 12 8 11 17 18 32 29 27 28 21 31 19 39 50 40 38 32 28 24 19 19 25 34 43 46 46 45 42 43 44 43 39 37 34 32 29 28 27 26 25 26 25
6 10 17 11 8 29 15 22 20 41 32 31 23 7 27 53 36 37 34 30 25 23 27 38 44 47 48 48 47 46 45 42 39 37 34 33 31 30 29 27 28 29 26 23
6 7 16 17 18 38 12 11 23 43 49 33 15 39 24 18 28 33 33 31 27 29 41 46 46 46 48 48 47 40 39 39 39 36 35 33 31 30 29 31 31 28 24 24
6 2 24 30 17 25 13 21 13 21 30 44 52 46 37 28 26 29 32 32 35 47 47 46 44 48 48 47 42 41 40 40 40 40 36 33 33 34 34 32 31 29 25 23
20 17 1 46 15 38 16 22 24 35 34 36 34 32 29 34 34 36 34 46 54 52 49 43 45 49 49 46 45 44 43 42 41 38 36 36 36 38 38 38 34 29 25 24
7 6 12 27 53 35 53 48 47 40 29 30 33 34 33 33 34 44 48 49 48 50 48 46 50 51 50 49 47 46 45 43 42 42 41 40 40 40 38 36 32 27 25 22
13 3 9 17 48 57 59 64 59 47 43 46 40 37 34 43 57 59 59 57 57 58 56 53 54 55 53 51 48 49 47 46 46 45 44 44 42 39 36 30 26 23 21 19
12 22 20 29 44 48 58 68 64 55 53 49 46 54 59 69 73 67 64 63 62 61 60 57 58 59 58 54 52 52 52 51 50 50 49 46 45 44 38 34 31 25 22 20
22 9 19 25 26 30 43 53 56 50 55 59 65 64 66 71 65 58 59 58 59 62 60 57 59 60 59 57 54 55 53 52 53 52 51 51 50 43 41 38 32 28 23 23
39 42 44 62 57 55 49 46 45 53 56 64 71 68 65 67 68 63 64 61 61 61 61 60 62 63 59 56 54 52 53 50 51 52 51 49 43 39 35 30 25 24 23 23
73 72 78 81 82 80 76 72 72 74 75 72 67 65 63 66 64 60 61 63 62 61 60 59 60 58 55 54 54 54 51 51 51 50 48 42 40 40 36 33 29 26 24 21
63 58 57 57 77 83 77 75 74 78 74 71 65 60 57 57 58 58 60 59 58 58 56 52 49 48 50 52 51 51 52 51 52 52 49 49 47 44 39 35 32 30 27 23
59 64 55 69 72 74 69 64 65 66 60 58 57 53 53 53 55 57 54 52 50 50 41 36 38 41 47 50 52 56 57 57 55 52 51 47 43 40 36 35 34 32 27 28
48 50 49 56 64 67 71 69 68 67 65 60 55 54 53 52 53 48 46 44 44 39 36 35 36 42 47 52 55 57 58 56 55 52 49 48 44 41 40 38 34 31 29 28
38 42 44 47 49 56 61 61 57 56 53 49 49 50 46 44 41 42 42 42 39 36 33 37 43 49 54 56 58 58 57 56 54 51 48 45 45 45 41 36 33 32 32 31
29 34 40 45 49 54 57 55 57 53 46 42 40 42 43 43 41 42 41 38 31 28 35 44 51 54 55 57 59 59 58 57 53 50 50 50 48 42 37 37 37 34 34 34
32 33 34 39 42 43 44 40 36 39 41 39 37 35 35 34 36 39 42 42 36 40 46 50 52 57 60 60 60 60 59 56 54 53 52 47 43 41 40 38 36 35 36 38
41 39 36 37 38 37 34 34 31 27 32 32 31 33 35 36 40 44 44 42 41 50 53 54 56 58 59 60 61 60 58 56 54 51 49 46 45 43 39 38 38 37 40 41
47 46 43 38 36 36 34 32 33 35 33 33 35 32 34 35 40 47 49 47 51 55 56 54 56 60 61 61 61 61 59 57 54 51 48 46 43 41 40 40 40 42 43 43
51 48 45 43 42 36 31 28 35 35 35 35 34 34 36 39 44 47 45 46 49 55 57 56 59 63 65 65 64 62 60 57 54 50 48 46 45 44 43 43 44 43 45 45
55 50 46 45 43 37 34 33 36 36 37 39 42 42 43 44 45 40 46 45 48 55 57 60 62 65 67 67 66 64 61 57 53 51 50 48 46 46 45 45 45 46 47 47
52 51 48 46 49 45 37 38 40 33 36 41 42 44 47 50 50 50 49 53 54 55 60 63 67 70 70 71 70 66 62 59 57 55 52 50 49 49 48 48 49 48 47 48
63 59 58 57 51 51 48 42 43 40 36 39 40 39 45 51 54 55 56 58 59 61 60 63 66 69 70 71 71 68 65 62 59 57 55 53 52 51 50 50 50 49 50 50
Wind_Direction_850mb
181 346 175 207 193 192 218 227 218 198 197 207 203 210 202 211 291 298 310 281 278 274 285 282 287 281 269 267 268 269 267 267 270 270 271 270 269 268 264 259 257 257 259 262
338 37 2 254 218 217 225 221 228 281 268 236 215 172 183 267 272 278 269 267 264 272 280 285 287 288 292 289 282 274 268 264 264 264 265 267 267 264 260 257 254 253 256 260
217 350 53 283 195 198 199 186 202 226 231 213 232 232 227 240 244 252 244 259 256 258 264 271 296 294 293 290 280 269 260 257 258 259 259 258 255 252 249 246 243 243 245 251
153 49 232 255 313 206 202 203 211 218 208 202 223 239 250 254 240 239 247 249 238 248 272 284 285 293 292 296 301 284 265 256 252 250 250 250 250 249 249 248 246 242 233 237
152 191 302 271 194 169 175 240 217 213 228 220 227 234 248 238 249 246 243 224 233 251 272 296 300 294 295 293 291 281 263 252 247 244 244 245 247 248 245 240 234 228 241 243
117 153 214 246 207 168 104 260 224 206 225 217 160 220 253 261 246 240 220 226 240 259 283 298 297 292 289 287 282 275 262 250 244 242 244 246 243 238 233 227 231 238 234 228
173 216 282 235 174 146 150 242 214 204 223 191 184 225 247 253 235 213 224 232 249 277 292 289 281 282 282 281 280 275 258 245 241 241 241 240 236 231 226 227 228 222 215 221
109 135 262 172 140 173 198 168 155 186 225 227 238 242 246 239 213 230 240 245 277 292 284 270 273 277 276 277 277 266 250 240 235 235 234 231 227 226 223 219 213 210 214 222
190 210 155 182 199 194 193 195 215 232 230 240 240 247 247 229 243 253 248 278 283 278 268 266 275 274 271 273 267 254 242 236 234 233 229 226 224 218 213 208 209 214 222 224
103 240 211 207 212 222 225 241 251 251 233 232 236 252 255 253 257 275 278 281 278 272 257 269 271 266 265 263 256 244 235 230 229 228 226 218 212 209 207 207 210 218 219 224
266 186 350 256 227 230 237 243 251 260 267 262 260 264 271 280 284 286 282 284 282 271 259 271 267 263 261 258 249 239 231 226 225 225 218 210 204 203 204 208 215 216 218 223
228 180 206 255 261 257 251 256 261 268 271 272 276 281 284 281 279 281 279 277 272 258 262 267 262 260 255 250 242 234 228 225 222 216 207 202 199 197 199 205 214 216 217 225
232 252 290 282 283 274 280 279 279 272 267 267 272 274 275 276 276 281 277 274 268 265 271 265 262 259 253 244 236 230 227 224 218 209 203 198 199 203 207 204 210 212 218 229
255 274 276 274 274 281 285 286 281 276 268 268 272 273 274 271 273 275 276 274 267 265 264 262 260 254 245 236 230 226 223 220 213 205 200 199 202 206 208 209 210 211 219 223
264 262 265 275 279 280 283 279 274 272 272 273 275 273 271 268 270 275 272 269 267 264 261 260 255 246 235 227 223 219 214 206 202 199 197 198 202 205 207 209 215 221 226 234
278 275 273 273 277 278 278 278 275 277 281 283 282 278 279 274 269 268 266 264 264 270 273 262 247 237 225 220 215 208 201 197 195 195 196 198 203 208 211 214 220 227 232 238
272 274 270 267 270 277 279 282 281 283 288 286 287 287 278 269 265 262 262 266 270 272 261 246 237 225 216 211 205 196 193 192 194 197 199 204 210 213 215 219 224 230 235 244
280 284 280 276 278 280 281 283 284 283 283 287 284 279 273 266 264 263 264 268 268 258 243 231 219 211 206 198 193 192 193 195 197 198 202 206 209 213 219 223 226 233 241 252
291 290 289 289 290 289 289 288 286 284 283 281 278 278 277 270 261 257 256 258 253 242 227 210 199 191 188 188 190 191 194 196 199 203 206 210 215 219 222 227 233 238 246 257
314 305 297 294 292 290 289 289 287 283 278 274 273 270 269 263 254 250 252 252 248 233 207 197 189 185 186 190 193 195 197 200 203 206 212 216 219 223 227 232 236 243 253 260
332 326 324 320 313 307 304 301 300 290 272 263 261 263 262 255 247 243 236 232 217 201 199 198 195 192 192 195 196 199 202 205 208 212 217 220 224 229 234 239 245 252 259 264
327 325 326 326 323 321 310 307 306 300 290 277 265 256 250 242 234 229 227 227 211 204 202 200 200 201 201 199 201 204 207 210 214 217 221 224 229 234 240 247 253 259 262 265
318 313 317 320 324 324 319 308 297 293 284 275 266 256 249 243 238 231 225 217 207 208 209 207 205 205 205 207 209 210 212 215 218 223 227 232 236 241 246 251 256 259 263 268
323 316 302 306 315 319 323 311 296 289 284 275 260 245 238 237 233 230 230 229 220 216 215 214 211 211 211 212 212 215 217 220 224 228 232 236 240 244 248 253 257 261 266 269
304 305 305 290 292 304 308 311 304 298 290 279 268 252 240 233 232 229 233 229 224 223 222 220 217 217 218 218 218 220 223 226 229 233 236 240 244 248 252 255 259 262 265 268
293 289 289 288 283 282 288 294 297 294 291 286 275 261 248 238 230 226 226 226 226 227 225 224 222 222 222 222 223 225 228 230 233 236 239 243 247 250 254 258 261 264 267 269
291 286 279 275 277 275 276 282 289 297 293 287 281 264 252 243 239 234 230 229 228 228 227 227 226 228 228 228 229 229 231 233 236 239 242 246 249 253 257 261 264 266 268 269